STARLINK-32417, 61673

Orbit data source: Space-Track

STARLINK-32417, 61673 is a payload satellite owned by SpaceX/Seattle (US) in LEO that was launched on Sat, 26 Oct 2024 UTC via an FALCON 9 launch vehicle from the Air Force Eastern Test Range (AFETR). Payload-class satellites include a variety of spacecraft equipped with specific instruments for various scientific and technological missions. These include communications satellites like Starlink; space stations such as the ISS; scientific satellites like the Hubble; Earth observation satellites from companies like Planet Labs, Umbra, and HawkEye 360; GPS; miniature CubeSats for education and research; and military/defense satellites.

Loading next visibility...
Identifier
61673, 2024-193N
Orbit
LEO
Last TLE update
16 hours ago
Origin
Manufacturer
SpaceX/Seattle
Mission
Operational Commercial Communications
Bus & Motor
STARLINK V2M, Unknown motor
Mass
730 kg wet, ~700 kg dry
Launch date (UTC)
2024-10-26 (8 months ago)
Launch vehicle
FALCON 9
Launch site
Air Force Eastern Test Range (AFETR)
Object type
Payload
Rocket body
Debris
Shape & HBR
Box + 2 Pan, 29 m
Radar Cross Section
36.964 m², Large (>1 m²)

Expand to show TLE details & history

TLE from 16 hours ago
0 STARLINK-32417
1 61673U 24193N   25181.73588111  .00000485  00000-0  28485-4 0  9991
2 61673  53.1602 181.1448 0001083  79.3343 280.7780 15.30195175 37953
Epoch: 2025-06-30T17:39Z
TLE epoch observation values (Epoch: 2025-06-30T17:39:40.127Z)
Latitude
-0.00002°
Longitude
-2.81382°
Altitude
475.99 km
Speed
7.629 km/s
True Right ascension
12h 04m 34s
True Declination
0° 00' 00"
Sunlit
Object was in daylight at epoch
Visualization orbit readout
Latitude
-5.4281°
Longitude
-9.90246°
Altitude
476.964 km
Speed
7.628 km/s
Apparent Right ascension
10h 30m 06s
Apparent Declination
-23° 07' 40"
Sunlit
Object is in daylight
Visualization observer readout
Local Sidereal Time
20:56:41
Azimuth
303.416° NW
Elevation
-64.106°
Doppler factor
1
Orbital elements
Apogee altitude
476.228 km
Perigee altitude
474.744 km
Semi-major axis
6,853.623 km
Eccentricity
0.00011
Inclination
53.1602°
RAAN
181.1448°
Arg. of periapsis
79.3343°
True anomaly
Unknown
Mean anomaly
280.778°
Eccentric anomaly
Unknown
Mean motion
3.82528 °/min
Orbital period
94.11 mins
BSTAR
0.000028485
Loading maneuver chart data...
Loading SW <> Apogee altitude chart data...
Loading historical data...
Loading historical data...
Loading historical data...
Loading historical data...
Loading historical data...
Loading historical data...
Loading historical data...

STARLINK-32417 Visibility forecast

Observer location: undefined°, undefined°

Span
Click to sort rows by Start time (UTC) header in descending order
Start Az.
Max El. time (UTC)
Max El. Az.
Max El.
End time (UTC)
End Az.
7 mins2025-07-01 09:50:26.154Z304.207° NW2025-07-01 09:53:26.154Z262.299° W40.494°2025-07-01 09:57:26.154Z141.327° SSE
5 mins2025-07-02 02:47:26.154Z247.69° W2025-07-02 02:49:26.154Z335.455° NNW41.706°2025-07-02 02:52:26.154Z43.356° NE
4 mins2025-07-02 07:44:26.154Z349.238° N2025-07-02 07:46:26.154Z31.483° NE18.583°2025-07-02 07:48:26.154Z67.807° E
|